Latest  Newer  Older  Last 2 hours slideshow  Last 24 hours slideshow  Refresh every 5 minutes 
Current image  Latest image  Rain/snow radar  Cloud coverage sat images 

All time is UTC (add 2 hours to UTC in wintertime, 3 hours to UTC in DST for Latvia local time)

2020/07/13 01:20 EVRA 130120Z 18003KT CAVOK 08/07 Q1018 NOSIG
2020/07/13 01:20 EVLA 130120Z AUTO 00000KT 3300 FG NCD 08/08 Q1018
2020/07/13 01:20 EVVA 130120Z AUTO VRB01KT 0450 FG NSC 09/09 Q1017
2020/07/13 01:20 EYKA 130120Z 25005KT 9999 SCT026 10/08 Q1020
2020/07/13 01:20 EYPA 130120Z AUTO 27003KT 220V320 9999 NCD 14/12 Q1019

2020/07/13 01:20 EYVI 130120Z VRB02KT 9999 SCT040 09/08 Q1020 NOSIG



2020/07/13 01:20 EETN 130120Z VRB01KT CAVOK 10/09 Q1016

   RIGA AIRPORT     EVRA               56 55N  023 58E   10   X     T          6 LV
   LIEPAJA INTL     EVLA        26406  56 31N  021 06E    4   X                8 LV
   VENTPILS         EVVA               57 21N  021 33E    6   X                8 LV
   KAUNAS           EYKA               54 54N  023 55E   77   X     T          6 LT
   PALANGA INTL     EYPA               55 55N  021 03E   10   X                6 LT
   SIAULIAI INTL    EYSA               55 54N  023 24E  135   X     T          6 LT
   VILNIUS INTL     EYVI        26730  54 38N  025 17E  197   X     T          6 LT
   KARDLA           EEKA        26116  58 59N  022 50E    4   X                8 EE
   KURESSAARE       EEKE               58 14N  022 31E    4   X                8 EE
   PARNU            EEPU               58 25N  024 28E   14   X                8 EE
   TALLINN          EETN        26038  59 24N  024 49E   40   X     T          8 EE
   TARTU            EETU               58 19N  026 41E   67   X                8 EE